Weather History for Middletown, OH

Change the Weather History Date:

Thursday, May 9, 2013

  Actual Average (KDAY) Record (KDAY)
Temperature  
Mean Temperature 64 °F 59 °F  
Max Temperature 77 °F 70 °F 92 °F (1896)
Min Temperature 50 °F 49 °F 31 °F (1947)
Degree Days  
Heating Degree Days 2 7  
Month to date heating degree days 69  
Since 1 July heating degree days 5520  
Cooling Degree Days 0 1  
Month to date cooling degree days 9  
Year to date cooling degree days 19  
Growing Degree Days 14 (Base 50)    
Moisture  
Dew Point 59 °F    
Average Humidity 80    
Maximum Humidity 100    
Minimum Humidity 47    
Precipitation  
Precipitation 0.00 in 0.15 in 1.41 in (1933)
Month to date precipitation 1.34  
Year to date precipitation 13.72  
Snow  
Snow 0.00 in 0.00 in 0.50 in (1923)
Month to date snowfall 0.0  
Since 1 July snowfall 23.3  
Snow Depth -    
Sea Level Pressure  
Sea Level Pressure 30.00 in    
Wind  
Wind Speed 3 mph (SW)    
Max Wind Speed 16 mph    
Max Gust Speed 21 mph    
Visibility 9 miles    
Events Fog    
T = Trace of Precipitation, MM = Missing Value Source: NWS Daily Summary

Daily Weather History Graph

Daily Weather History Graph

Search for Another Location

Airport:

Trip Planner

Search our weather history database for the weather conditions in past years. The results will help you decide how hot, cold, wet, or windy it might be!

Date:

Astronomy

May. 09, 2013 Rise Set
Actual Time 6:29 AM EDT 8:39 PM EDT
Civil Twilight 5:59 AM EDT 9:09 PM EDT
Nautical Twilight 5:22 AM EDT 9:46 PM EDT
Astronomical Twilight 4:42 AM EDT 10:26 PM EDT
Moon 6:12 AM EDT (5/9) 8:33 PM EDT (5/9)
Length of Visible Light 15h 10m
Length of Day
14h 10m
Waning Crescent, 0% of the Moon is Illuminated
May 9
Waning Crescent
May 9
New
May 18
First Quarter
May 25
Full
May 31
Last Quarter

Hourly Weather History & Observations

Time (EDT) Temp. Dew Point Humidity Pressure Visibility Wind Dir Wind Speed Gust Speed Precip Events Conditions
12:35 AM 57.7 °F 57.7 °F 100% 30.02 in 7.0 mi SW 6.9 mph - N/A   Mostly Cloudy
12:55 AM 57.7 °F 57.7 °F 100% 30.02 in 10.0 mi SW 3.5 mph - N/A   Mostly Cloudy
1:55 AM 55.4 °F 55.4 °F 100% 30.00 in 5.0 mi Calm Calm - N/A   Scattered Clouds
2:15 AM 55.4 °F 55.4 °F 100% 30.00 in 1.2 mi Calm Calm - N/A   Scattered Clouds
2:35 AM 52.9 °F 52.9 °F 100% 29.99 in - Calm Calm - N/A   Unknown
2:55 AM 54.9 °F 54.9 °F 100% 29.99 in - WSW 3.5 mph - N/A   Unknown
3:15 AM 52.9 °F 52.9 °F 100% 29.99 in - Calm Calm - N/A   Unknown
3:55 AM 52.7 °F 52.7 °F 100% 29.98 in 1.5 mi Calm Calm - N/A   Mist
4:55 AM 52.7 °F 52.7 °F 100% 30.00 in 0.2 mi Calm Calm - N/A Fog Fog
5:55 AM 50.5 °F 50.5 °F 100% 30.00 in 0.5 mi Calm Calm - N/A Fog Fog
6:15 AM 52.5 °F 52.5 °F 100% 30.00 in 0.5 mi Calm Calm - N/A Fog Fog
7:15 AM 52.7 °F 52.7 °F 100% 30.03 in 2.5 mi Calm Calm - N/A   Clear
8:55 AM 58.1 °F 58.1 °F 100% 30.03 in 7.0 mi Calm Calm - N/A   Clear
9:15 AM 60.1 °F 60.1 °F 100% 30.03 in 10.0 mi Calm Calm - N/A   Clear
9:35 AM 61.9 °F 60.6 °F 96% 30.04 in 10.0 mi WSW 4.6 mph - N/A   Clear
10:15 AM 65.1 °F 62.4 °F 91% 30.04 in 10.0 mi SSW 3.5 mph - N/A   Clear
10:55 AM 67.6 °F 62.8 °F 84% 30.04 in 10.0 mi Calm Calm - N/A   Clear
11:35 AM 68.9 °F 63.0 °F 81% 30.05 in 10.0 mi SSW 3.5 mph - N/A   Clear
11:55 AM 71.1 °F 64.6 °F 80% 30.05 in 10.0 mi Calm Calm - N/A   Clear
12:15 PM 72.7 °F 65.5 °F 78% 30.05 in 10.0 mi SSW 3.5 mph - N/A   Clear
12:35 PM 72.7 °F 65.3 °F 78% 30.05 in 10.0 mi Calm Calm - N/A   Clear
1:15 PM 75.2 °F 64.2 °F 69% 30.04 in 10.0 mi Calm Calm - N/A   Clear
1:35 PM 75.2 °F 63.5 °F 67% 30.03 in 10.0 mi Calm Calm - N/A   Clear
1:55 PM 76.8 °F 65.3 °F 67% 30.03 in 10.0 mi SSE 3.5 mph - N/A   Clear
2:15 PM 75.6 °F 62.1 °F 63% 30.03 in 10.0 mi SW 5.8 mph - N/A   Scattered Clouds
2:35 PM 75.9 °F 59.9 °F 57% 30.02 in 10.0 mi Calm Calm - N/A   Mostly Cloudy
2:55 PM 77.9 °F 60.4 °F 55% 30.01 in 10.0 mi WSW 3.5 mph - N/A   Scattered Clouds
3:15 PM 77.9 °F 61.0 °F 56% 30.01 in 10.0 mi SW 4.6 mph - N/A   Mostly Cloudy
3:35 PM 77.9 °F 59.7 °F 53% 30.00 in 10.0 mi Calm Calm - N/A   Mostly Cloudy
4:15 PM 77.9 °F 57.2 °F 49% 29.98 in 10.0 mi West 5.8 mph - N/A   Clear
4:35 PM 77.9 °F 56.3 °F 47% 29.98 in 10.0 mi SW 9.2 mph - N/A   Clear
4:55 PM 77.9 °F 57.9 °F 50% 29.97 in 10.0 mi SW 3.5 mph - N/A   Clear
5:15 PM 77.9 °F 57.9 °F 50% 29.97 in 10.0 mi SW 3.5 mph - N/A   Scattered Clouds
5:35 PM 77.9 °F 58.6 °F 51% 29.97 in 10.0 mi WSW 3.5 mph - N/A   Scattered Clouds
5:55 PM 75.2 °F 57.2 °F 53% 29.98 in 10.0 mi WSW 10.4 mph - N/A   Scattered Clouds
6:15 PM 75.2 °F 59.0 °F 57% 29.98 in 10.0 mi WSW 5.8 mph - N/A   Scattered Clouds
6:35 PM 75.2 °F 59.7 °F 58% 29.98 in 10.0 mi SW 9.2 mph - N/A   Scattered Clouds
6:55 PM 75.2 °F 59.7 °F 58% 29.97 in 10.0 mi SW 5.8 mph - N/A   Clear
7:15 PM 72.7 °F 59.4 °F 63% 29.97 in 10.0 mi WSW 5.8 mph - N/A   Clear
7:35 PM 72.7 °F 60.3 °F 65% 29.97 in 10.0 mi WSW 4.6 mph - N/A   Scattered Clouds
7:55 PM 72.7 °F 62.2 °F 70% 29.98 in 10.0 mi West 16.1 mph 20.7 mph N/A   Overcast
8:15 PM 67.6 °F 63.0 °F 85% 29.98 in 10.0 mi WNW 11.5 mph 17.3 mph N/A   Drizzle
8:35 PM 65.3 °F 61.2 °F 86% 29.97 in 10.0 mi Calm Calm - N/A   Overcast
8:55 PM 65.3 °F 61.5 °F 88% 29.97 in 10.0 mi Calm Calm - N/A   Overcast
9:15 PM 65.3 °F 61.5 °F 88% 29.98 in 10.0 mi Calm Calm - N/A   Scattered Clouds
9:35 PM 62.6 °F 61.7 °F 97% 30.00 in 10.0 mi WSW 3.5 mph - N/A   Mostly Cloudy
9:55 PM 62.6 °F 61.5 °F 96% 29.99 in 10.0 mi Calm Calm - N/A   Mostly Cloudy
10:15 PM 62.6 °F 61.9 °F 97% 29.99 in 10.0 mi Calm Calm - N/A   Mostly Cloudy
10:35 PM 63.0 °F 61.9 °F 96% 29.98 in 10.0 mi Calm Calm - N/A   Mostly Cloudy
10:55 PM 60.8 °F 60.8 °F 100% 29.98 in 10.0 mi Calm Calm - N/A   Scattered Clouds
11:15 PM 60.8 °F 60.8 °F 100% 29.97 in 10.0 mi Calm Calm - N/A   Scattered Clouds
11:55 PM 60.1 °F 60.1 °F 100% 29.96 in 10.0 mi Calm Calm - N/A   Mostly Cloudy